[[{"header":{"parameterUnit":"m.s-1","parameterCategory":1,"la1":30.2991,"la2":30.254,"lo1":-89.0895,"lo2":-89.0444,"dy":0.0017,"dx":0.0017,"nx":28,"ny":28,"refTime":"2023-08-04T09:00:00:Z","depth":0,"parameterNumber":2,"parameterNumberName":"U-component_of_WINDS"},"data":[0,0,0,0,0,0,0,0,0,0,0,0,0,0,0,0,0,0,0,0,0,0,0,0,0,0,0,0,0,0,0,0,0,0,0,0,0,0,0,0,0,0,0,0,0,0,0,0,0,0,0,0,0,0,0,0,0,0,4.4259,4.4261,0,4.4447,4.4449,4.4452,4.4403,4.4399,4.4395,4.4392,4.4587,4.4595,4.4604,0,0,0,0,0,0,0,0,0,0,0,0,0,4.3856,4.3864,4.4259,4.4261,4.4263,4.4447,4.445,4.4452,4.4403,4.4399,4.4394,4.439,4.4584,4.4594,4.4604,0,0,0,0,0,0,0,0,0,0,0,0,0,4.4037,4.3866,4.4258,4.4261,4.4263,4.4446,4.445,4.4453,4.4404,4.4399,4.4393,4.4388,4.458,4.4593,4.4606,4.4798,0,0,4.4646,4.4651,0,0,0,0,0,0,0,0,4.4026,4.4051,4.4258,4.4261,4.4264,4.4396,4.4379,4.4569,4.4406,4.4351,4.4392,4.4385,4.4528,4.4545,4.4592,4.4807,4.4816,4.4647,4.4655,4.466,4.4664,0,0,0,0,0,0,0,4.4014,4.4043,4.4333,4.4261,4.4265,4.4253,4.4272,4.4415,4.4469,4.4355,4.4352,4.4375,4.4528,4.458,4.4597,4.4819,4.4646,4.4658,4.4666,4.4671,4.5199,4.5205,0,0,0,0,0,0,4.3999,4.4033,4.4327,4.4339,4.4129,4.4265,4.4286,4.4359,4.4467,4.4478,4.438,4.4372,4.4561,4.4582,4.4603,4.4834,4.466,4.4672,4.468,4.5193,4.52,4.5207,0,0,0,0,0,0,4.3991,4.4026,4.432,4.4185,4.4222,4.4278,4.436,4.4366,4.4417,4.4485,4.4495,4.4423,4.4557,4.4585,4.475,4.484,4.4678,4.469,4.5185,4.5195,4.5204,4.5299,0,0,0,0,0,0,4.3979,4.4023,4.4097,4.4187,4.4229,4.4463,4.4365,4.4373,4.444,4.4432,4.4528,4.4539,4.4555,4.473,4.4763,4.4855,4.47,4.5178,4.519,4.5201,4.5288,4.531,4.5329,0,0,0,0,0,4.3965,4.4117,4.4101,4.4137,4.4322,4.4468,4.4492,4.4507,4.4447,4.4522,4.4565,4.4536,4.4825,4.4748,4.4783,4.4882,4.5172,4.5186,4.52,4.5278,4.5306,4.5329,0,0,0,0,0,0,4.4037,4.4129,4.4112,4.4298,4.4375,4.446,4.4554,4.4536,4.4633,4.4621,4.4636,4.4658,4.4826,4.487,4.4782,4.5072,4.499,4.5012,4.5037,4.5064,4.5084,4.507,4.4711,0,0,0,0,0,4.4074,4.4185,4.4259,4.4416,4.4456,4.4498,4.4563,4.4567,4.4648,4.4681,4.4737,4.4817,4.4926,4.4997,4.5102,4.5294,4.5313,4.5379,4.54,4.5416,4.5435,4.5538,4.5567,4.5253,4.5253,4.5253,0,0,4.4153,4.4217,4.4286,4.4432,4.4493,4.4607,4.4527,4.4651,4.4735,4.47,4.4858,4.4902,4.4993,4.5171,4.5253,4.5213,4.5526,4.5434,4.5447,4.5457,4.5555,4.5585,4.5611,4.5262,4.5261,4.5259,0,0,4.4354,4.4414,4.455,4.4612,4.4704,4.4732,4.4764,4.4851,4.4878,4.5037,4.5013,4.5113,4.5301,4.5366,4.5424,4.5648,4.5624,4.5681,4.579,4.589,4.5915,4.5937,4.6015,4.6043,4.57,4.57,4.57,0,4.444,4.461,4.4622,4.4749,4.4813,4.4785,4.4923,4.4982,4.5105,4.515,4.5104,4.5337,4.5397,4.5589,4.5643,4.5692,4.5729,4.567,4.591,4.5932,4.5953,4.6028,4.6057,4.5706,4.5705,4.5705,4.5704,0,4.4711,4.4829,4.4928,4.5045,4.5121,4.5252,4.5284,4.5359,4.5356,4.5388,4.5549,4.5619,4.5736,4.5782,4.5782,4.5975,4.5947,4.5906,4.5823,4.5989,4.6059,4.6088,4.5715,4.5713,4.5711,4.5709,0,0,4.4963,4.5084,4.512,4.5172,4.5271,4.5363,4.5492,4.5606,4.5669,4.5754,4.5862,4.6021,4.5983,4.6048,4.6055,4.6143,4.6313,4.609,4.6093,4.6128,4.6528,4.6558,4.6591,4.6298,4.6304,4.6308,4.652,0,4.5172,4.5399,4.5413,4.5619,4.5727,4.5702,4.5814,4.5887,4.592,4.6017,4.6054,4.6165,4.6107,4.6146,4.6232,4.6274,4.6394,4.6259,4.6399,4.6403,4.6375,4.6628,4.666,4.6857,4.6548,4.6553,4.6556,0,4.5446,4.5537,4.5754,4.5836,4.5882,4.5983,4.6086,4.618,4.6262,4.6279,4.6351,4.6345,4.6477,4.639,4.6572,4.648,4.6538,4.6567,4.6575,4.6588,4.6489,4.6646,4.692,4.6949,4.66,4.6596,4.6593,0,4.5606,4.5784,4.5936,4.5981,4.6081,4.6152,4.6197,4.6273,4.634,4.6431,4.6474,4.658,4.6637,4.6719,4.6741,4.6676,4.6922,4.6837,4.694,4.6939,4.6992,4.6988,4.7278,4.7032,4.7031,4.7031,4.703,0,4.5838,4.5971,4.6009,4.6102,4.625,4.6264,4.641,4.6451,4.6518,4.6619,4.6604,4.6698,4.6722,4.6821,4.6839,4.6986,4.7013,4.703,4.7033,4.7031,4.7029,4.7068,4.7055,4.7038,4.7037,4.7035,4.7034,0,4.6042,4.6073,4.6237,4.6317,4.634,4.6445,4.6514,4.6603,4.6633,4.6761,4.6791,4.6839,4.6955,4.6984,4.7123,4.7135,4.7308,4.7299,4.728,4.7279,4.738,4.7369,4.7704,4.7748,4.7474,4.7476,4.7479,0,4.6187,4.6288,4.6379,4.6444,4.6492,4.6598,4.6665,4.6683,4.6754,4.6853,4.693,4.7044,4.7135,4.7321,4.7368,4.7474,4.7466,4.7576,4.7482,4.7476,4.7466,4.7459,4.7468,4.7594,4.7597,4.7599,4.7601,0,4.644,4.645,4.6547,4.665,4.673,4.6812,4.689,4.6945,4.6973,4.7053,4.717,4.7241,4.7382,4.7494,4.76,4.7646,4.7629,4.763,4.7659,4.7657,4.7641,4.765,4.7327,4.7622,4.762,4.7619,4.7617,4.7616,4.6619,4.6707,4.6783,4.6892,4.6952,4.7025,4.7112,4.7152,4.725,4.7365,4.7369,4.7496,4.7574,4.7714,4.7766,4.7865,4.7832,4.7875,4.7885,4.7895,4.7903,4.7626,4.7885,4.7885,4.7884,4.7884,4.7883,0,4.687,4.6917,4.7017,4.7126,4.7211,4.7185,4.727,4.7343,4.7454,4.7528,4.7617,4.7751,4.786,4.7915,4.8022,4.8091,4.8085,4.8118,4.8113,4.8124,4.7928,4.7891,4.8121,4.8121,4.8121,4.8121,4.8121,4.8121,4.7011,4.7158,4.7176,4.7352,4.7399,4.7522,4.7573,4.764,4.7698,4.7847,4.7937,4.7971,4.8037,4.8149,4.8247,4.826,4.83,4.8337,4.8346,4.8162,4.8138,4.8114,4.808,4.8346,4.8346,4.8534,4.8535,4.8537]},{"header":{"parameterUnit":"m.s-1","parameterCategory":1,"la1":30.2991,"la2":30.254,"lo1":-89.0895,"lo2":-89.0444,"dy":0.0017,"dx":0.0017,"nx":28,"ny":28,"refTime":"2023-08-04T09:00:00:Z","depth":0,"parameterNumber":3,"parameterNumberName":"V-component_of_WINDS"},"data":[0,0,0,0,0,0,0,0,0,0,0,0,0,0,0,0,0,0,0,0,0,0,0,0,0,0,0,0,0,0,0,0,0,0,0,0,0,0,0,0,0,0,0,0,0,0,0,0,0,0,0,0,0,0,0,0,0,0,-0.0931,-0.0932,0,-0.0968,-0.0968,-0.0969,-0.1013,-0.1013,-0.1014,-0.1015,-0.1052,-0.1052,-0.1052,0,0,0,0,0,0,0,0,0,0,0,0,0,-0.0899,-0.09,-0.0931,-0.0932,-0.0932,-0.0968,-0.0969,-0.0969,-0.1012,-0.1013,-0.1014,-0.1015,-0.1051,-0.1052,-0.1052,0,0,0,0,0,0,0,0,0,0,0,0,0,-0.0922,-0.09,-0.0931,-0.0958,-0.0961,-0.0968,-0.0969,-0.0969,-0.1012,-0.1013,-0.1014,-0.1015,-0.1051,-0.1052,-0.1052,-0.1035,0,0,-0.1054,-0.1054,0,0,0,0,0,0,0,0,-0.0921,-0.0923,-0.0954,-0.0956,-0.096,-0.0987,-0.0971,-0.0991,-0.1012,-0.0993,-0.1015,-0.1016,-0.1029,-0.1032,-0.1036,-0.1037,-0.1039,-0.1054,-0.1054,-0.1055,-0.1055,0,0,0,0,0,0,0,-0.0919,-0.0922,-0.0946,-0.0954,-0.0958,-0.0969,-0.0973,-0.0975,-0.1005,-0.0995,-0.0998,-0.1002,-0.1031,-0.1036,-0.1037,-0.1039,-0.1054,-0.1054,-0.1055,-0.1055,-0.1029,-0.1028,0,0,0,0,0,0,-0.0914,-0.092,-0.0945,-0.0947,-0.0942,-0.0968,-0.0973,-0.0977,-0.1005,-0.101,-0.1001,-0.1003,-0.1034,-0.1037,-0.1039,-0.1021,-0.1055,-0.1055,-0.1055,-0.103,-0.1029,-0.1028,0,0,0,0,0,0,-0.0913,-0.0915,-0.0943,-0.0935,-0.0939,-0.0968,-0.0972,-0.0977,-0.0982,-0.101,-0.1015,-0.1,-0.1035,-0.1038,-0.1036,-0.1023,-0.1055,-0.1056,-0.1032,-0.103,-0.1029,-0.0986,0,0,0,0,0,0,-0.0912,-0.0915,-0.0908,-0.0934,-0.0939,-0.094,-0.0971,-0.0977,-0.0983,-0.0987,-0.101,-0.1015,-0.1036,-0.1035,-0.1037,-0.1024,-0.1056,-0.1033,-0.1031,-0.1029,-0.0988,-0.0983,-0.0978,0,0,0,0,0,-0.091,-0.0894,-0.0908,-0.091,-0.0932,-0.0939,-0.0942,-0.0966,-0.0982,-0.0976,-0.0994,-0.1014,-0.1025,-0.1035,-0.1037,-0.1024,-0.1034,-0.1031,-0.1029,-0.0991,-0.0984,-0.0978,0,0,0,0,0,0,-0.0866,-0.0898,-0.0913,-0.0905,-0.0919,-0.0946,-0.0939,-0.0958,-0.0967,-0.0971,-0.1001,-0.1006,-0.1,-0.1013,-0.1023,-0.101,-0.1032,-0.103,-0.1002,-0.0996,-0.0991,-0.0988,-0.1057,0,0,0,0,0,-0.0855,-0.0858,-0.0886,-0.0876,-0.0883,-0.091,-0.0913,-0.0931,-0.0947,-0.0952,-0.097,-0.0984,-0.0991,-0.0994,-0.1002,-0.0991,-0.0997,-0.0984,-0.0978,-0.0974,-0.0972,-0.0968,-0.0962,-0.1021,-0.1021,-0.1021,0,0,-0.0833,-0.0851,-0.0851,-0.0868,-0.0881,-0.0883,-0.0914,-0.0915,-0.0917,-0.0953,-0.0952,-0.0966,-0.0983,-0.0977,-0.0975,-0.0987,-0.0957,-0.0971,-0.0968,-0.0968,-0.0965,-0.0959,-0.0954,-0.1019,-0.1019,-0.102,0,0,-0.0793,-0.0807,-0.0801,-0.0813,-0.0832,-0.0851,-0.0849,-0.0874,-0.0884,-0.0884,-0.0911,-0.0915,-0.0925,-0.0937,-0.0944,-0.0911,-0.093,-0.0913,-0.0885,-0.0881,-0.0876,-0.0872,-0.0861,-0.0856,-0.091,-0.091,-0.091,0,-0.0763,-0.0768,-0.0795,-0.0795,-0.0802,-0.0835,-0.0829,-0.084,-0.086,-0.0864,-0.0877,-0.0892,-0.0906,-0.0903,-0.0895,-0.09,-0.0899,-0.0909,-0.0875,-0.0871,-0.0868,-0.0857,-0.0852,-0.0908,-0.0908,-0.0908,-0.0909,0,-0.073,-0.0732,-0.0725,-0.0744,-0.0751,-0.0747,-0.0775,-0.0778,-0.0796,-0.0813,-0.0813,-0.0832,-0.0844,-0.0845,-0.0862,-0.0845,-0.0851,-0.0869,-0.0892,-0.0859,-0.085,-0.0846,-0.0904,-0.0905,-0.0906,-0.0907,0,0,-0.0661,-0.0697,-0.0694,-0.0703,-0.0728,-0.0731,-0.0729,-0.0742,-0.0744,-0.0757,-0.0757,-0.0766,-0.0783,-0.0792,-0.0811,-0.0807,-0.078,-0.0825,-0.0826,-0.0816,-0.0762,-0.0748,-0.0743,-0.0794,-0.0793,-0.0792,-0.0761,0,-0.0626,-0.0625,-0.0651,-0.0643,-0.0647,-0.0679,-0.0678,-0.0693,-0.071,-0.0715,-0.0733,-0.0739,-0.0761,-0.0767,-0.0764,-0.0783,-0.0769,-0.0786,-0.0793,-0.0793,-0.0787,-0.0738,-0.0723,-0.0692,-0.0757,-0.0757,-0.0756,0,-0.0584,-0.0596,-0.0588,-0.0614,-0.0616,-0.0615,-0.0629,-0.0634,-0.0652,-0.0664,-0.0674,-0.0696,-0.0697,-0.072,-0.0722,-0.0733,-0.0738,-0.0748,-0.0747,-0.0748,-0.0772,-0.0737,-0.0683,-0.0678,-0.075,-0.0751,-0.0751,0,-0.0535,-0.0549,-0.0547,-0.0554,-0.0584,-0.0582,-0.0594,-0.0613,-0.062,-0.0632,-0.0636,-0.0649,-0.0655,-0.0664,-0.069,-0.0703,-0.0689,-0.0713,-0.0699,-0.0698,-0.0694,-0.0694,-0.0639,-0.0698,-0.0698,-0.0698,-0.0698,0,-0.0492,-0.0486,-0.0525,-0.0523,-0.0518,-0.0548,-0.0543,-0.0558,-0.0575,-0.0578,-0.0607,-0.0608,-0.0642,-0.0648,-0.0667,-0.0666,-0.0669,-0.0679,-0.0684,-0.0676,-0.0675,-0.0679,-0.0682,-0.0697,-0.0697,-0.0697,-0.0697,0,-0.0436,-0.0461,-0.0461,-0.049,-0.0497,-0.0492,-0.0517,-0.0517,-0.0536,-0.0538,-0.0541,-0.057,-0.0579,-0.0605,-0.062,-0.0633,-0.0626,-0.0637,-0.062,-0.0623,-0.0608,-0.0609,-0.0553,-0.0548,-0.061,-0.061,-0.0609,0,-0.0406,-0.0403,-0.0431,-0.0435,-0.0446,-0.0452,-0.0459,-0.0489,-0.0495,-0.0516,-0.0513,-0.0524,-0.0534,-0.0546,-0.0569,-0.0581,-0.0592,-0.0572,-0.0593,-0.0586,-0.0591,-0.0591,-0.0591,-0.0566,-0.0565,-0.0565,-0.0564,0,-0.0351,-0.0365,-0.0373,-0.0386,-0.0394,-0.0405,-0.0419,-0.042,-0.0454,-0.0459,-0.0468,-0.0476,-0.0492,-0.0502,-0.0518,-0.0532,-0.0553,-0.0557,-0.0555,-0.0546,-0.0536,-0.0541,-0.0606,-0.0558,-0.0559,-0.0559,-0.056,-0.056,-0.0308,-0.0306,-0.0326,-0.0335,-0.0349,-0.0361,-0.0363,-0.0382,-0.039,-0.0406,-0.0423,-0.043,-0.045,-0.0473,-0.0485,-0.0492,-0.0503,-0.0499,-0.0498,-0.0497,-0.0493,-0.0536,-0.0495,-0.0495,-0.0495,-0.0495,-0.0495,0,-0.0254,-0.0269,-0.0277,-0.0295,-0.0302,-0.0323,-0.034,-0.0344,-0.035,-0.0367,-0.0376,-0.0387,-0.0398,-0.0422,-0.0436,-0.0436,-0.0447,-0.0439,-0.0438,-0.0441,-0.0482,-0.0483,-0.043,-0.043,-0.043,-0.043,-0.043,-0.043,-0.0227,-0.0226,-0.0242,-0.0248,-0.0264,-0.0271,-0.0279,-0.029,-0.0304,-0.0315,-0.0324,-0.034,-0.036,-0.0375,-0.0386,-0.0393,-0.0396,-0.0385,-0.0395,-0.0432,-0.0438,-0.0444,-0.0445,-0.0385,-0.0385,-0.0354,-0.0354,-0.0354]}]]